San Jose, Costa Rica

1:59 AM CST on February 18, 2018 (GMT -0600)
Juan Santamaria International

Weather History for MROC - August, 2014

Change the Weather History Date:

Saturday, August 30, 2014

  Actual Average Record
Temperature  
Mean Temperature 72 °F -  
Max Temperature 81 °F 79 °F 86 °F (1997)
Min Temperature 64 °F 63 °F 64 °F (1999)
Cooling Degree Days 8    
Growing Degree Days 22 (Base 50)    
Moisture  
Dew Point 66 °F    
Average Humidity 82    
Maximum Humidity 100    
Minimum Humidity 22    
Precipitation  
Precipitation 0.12 in 0.47 in - ()
Sea Level Pressure  
Sea Level Pressure 29.99 in    
Wind  
Wind Speed 2 mph ()    
Max Wind Speed 12 mph    
Max Gust Speed -    
Visibility 7.6 miles    
Events Fog , Rain , Thunderstorm    
Averages and records for this station are not official NWS values.
T = Trace of Precipitation, MM = Missing Value Source: Averaged Metar Reports

Daily Weather History Graph

Daily Weather History Graph

Search for Another Location

Airport or City:

Trip Planner

Search our weather history database for the weather conditions in past years. The results will help you decide how hot, cold, wet, or windy it might be!

Date:

Astronomy

Aug. 30, 2014 Rise Set
Actual Time 5:27 AM CST 5:47 PM CST
Civil Twilight 5:06 AM CST 6:08 PM CST
Nautical Twilight 4:41 AM CST 6:33 PM CST
Astronomical Twilight 4:16 AM CST 6:57 PM CST
Moon 9:16 AM CST (8/30) 9:21 PM CST (8/30)
Length of Visible Light 13h 01m
Length of Day
12h 19m
Waxing Crescent, 23% of the Moon is Illuminated
Aug 30
Waxing Crescent
Sep 2
First Quarter
Sep 8
Full
Sep 15
Last Quarter
Sep 24
New

Hourly Weather History & Observations

Time (CST) Temp. Heat Index Dew Point Humidity Pressure Visibility Wind Dir Wind Speed Gust Speed Precip Events Conditions
12:00 AM 69 °F - 66 °F 86% 29.89 in 12 mi Calm Calm - -   Partly Cloudy
12:00 AM 69.8 °F - 66.2 °F 88% 30.04 in 6.2 mi Calm Calm - N/A   Mostly Cloudy
1:00 AM 68.0 °F - 66.2 °F 94% 30.03 in 6.2 mi Calm Calm - N/A   Mostly Cloudy
2:00 AM 68.0 °F - 66.2 °F 94% 30.02 in - Calm Calm - N/A   Clear
3:00 AM 67 °F - 66 °F 96% 29.87 in 12 mi Calm Calm - -   Clear
3:00 AM 68.0 °F - 66.2 °F 94% 30.01 in - Calm Calm - N/A   Clear
4:00 AM 68.0 °F - 66.2 °F 94% 30.02 in - Calm Calm - N/A   Clear
5:00 AM 66.2 °F - 64.4 °F 94% 30.02 in - Calm Calm - N/A   Clear
6:00 AM 66 °F - 64 °F 90% 29.92 in 12 mi NE 3.5 mph - -   Clear
6:00 AM 66.2 °F - 64.4 °F 94% 30.03 in - NE 3.5 mph - N/A   Clear
7:00 AM 71.6 °F - 64.4 °F 78% 30.05 in - NNE 4.6 mph - N/A   Clear
8:00 AM 75.2 °F - 64.4 °F 69% 30.05 in - Calm Calm - N/A   Clear
9:00 AM 79 °F - 64 °F 51% 29.92 in 12 mi WNW 3.5 mph - -   Scattered Clouds
9:00 AM 78.8 °F - 64.4 °F 61% 30.06 in 6.2 mi WNW 3.5 mph - N/A   Scattered Clouds
10:00 AM 80.6 °F 82.3 °F 64.4 °F 58% 30.06 in 6.2 mi West 6.9 mph - N/A   Scattered Clouds
11:00 AM 78.8 °F - 68.0 °F 69% 30.04 in 6.2 mi WSW 11.5 mph - N/A   Scattered Clouds
12:00 PM 81 °F - 69 °F 59% 29.87 in 9 mi WSW 10.4 mph - -   Mostly Cloudy
12:00 PM 80.6 °F 83.9 °F 69.8 °F 70% 30.02 in 6.2 mi WSW 10.4 mph - N/A   Scattered Clouds
1:00 PM 77.0 °F - 35.6 °F 22% 30.01 in 6.2 mi WSW 8.1 mph - N/A Thunderstorm Mostly Cloudy
2:00 PM 75.2 °F - 68.0 °F 78% 2.99 in 6.2 mi WSW 8.1 mph - N/A Rain Light Rain
3:00 PM 76 °F - 69 °F 72% 29.85 in 9 mi SW 4.6 mph - -   Overcast
3:00 PM 77.0 °F - 68.0 °F 74% 29.99 in 6.2 mi SW 4.6 mph - N/A   Mostly Cloudy
4:00 PM 71.6 °F - 68.0 °F 88% 29.98 in 6.2 mi SW 6.9 mph - N/A Rain , Thunderstorm Light Thunderstorms and Rain
5:00 PM 71.6 °F - 68.0 °F 88% 30.00 in 6.2 mi Calm Calm - N/A   Mostly Cloudy
6:00 PM 71 °F - 69 °F 90% 29.90 in 9 mi WNW 3.5 mph - - Fog Light Fog
6:00 PM 71.6 °F - 68.0 °F 88% 30.01 in 6.2 mi WNW 3.5 mph - N/A Fog Patches of Fog
7:00 PM 69.8 °F - 68.0 °F 94% 30.01 in 6.2 mi NW 3.5 mph - N/A   Mostly Cloudy
8:00 PM 69.8 °F - 68.0 °F 94% 30.02 in 6.2 mi SSE 2.3 mph - N/A Fog Patches of Fog
9:00 PM 69 °F - 68 °F 96% 29.89 in 9 mi Calm Calm - - Fog Patches of Fog
9:00 PM 69.8 °F - 68.0 °F 94% 30.04 in 6.2 mi Calm Calm - N/A Fog Patches of Fog
10:00 PM 69.8 °F - 68.0 °F 94% 30.05 in 6.2 mi ESE 2.3 mph - N/A Fog Patches of Fog
11:00 PM 68.0 °F - 68.0 °F 100% 30.04 in - East 4.6 mph - N/A   Clear